Location: Ladrillo (historical)
(32.8195°N, 117.2231°W)
Time: 07:51:09
(UTC+00:00)

FO-99 - Pass Details

Date: 17 April 2021
Orbit: 472 x 506 km, 97.2° (Epoch: 09 May)

Event Time Altitude Azimuth Distance (km) Brightness Sun altitude
Exits shadow 03:11:28 16° 101° (E) 1,368 ? -11.2°
Maximum altitude 03:12:52 20° 72° (ENE) 1,222 ? -11.4°
Drops below altitude 10° 03:15:36 10° 24° (NNE) 1,723 ? -12.0°
Sets 03:18:06 0° 7° (N) 2,611 ? -12.5°
